Location: Kutna Hora
(49.9500°N, 15.2670°E)
Time: 03:33:10
(UTC+02:00)

ISS - Visible Passes

Search period start: 22 May 2019 00:00
Search period end: 01 June 2019 00:00
Orbit: 407 x 410 km, 51.6° (Epoch: 22 May)

Date Brightness Start Highest point End Pass type
(mag) Time Alt. Az. Time Alt. Az. Time Alt. Az.
22 May -3.8 01:11:12 10° WNW 01:14:16 75° W 01:14:16 75° W visible
22 May -3.5 22:43:34 10° W 22:46:51 68° N 22:50:10 10° ENE visible
23 May -3.7 00:20:17 10° WNW 00:23:36 76° NNE 00:24:37 41° E visible
23 May -1.3 01:56:59 10° W 01:57:19 12° W 01:57:19 12° W visible
23 May -3.7 21:52:37 10° WSW 21:55:56 80° NNW 21:59:15 10° ENE visible
23 May -3.5 23:29:22 10° WNW 23:32:40 66° N 23:35:08 16° E visible
24 May -2.5 01:06:00 10° WNW 01:07:51 29° W 01:07:51 29° W visible
24 May -3.3 22:38:25 10° W 22:41:42 62° N 22:45:00 10° E visible
25 May -4.0 00:15:04 10° WNW 00:18:23 75° SSW 00:18:26 74° S visible
25 May -3.3 21:47:26 10° W 21:50:44 64° N 21:54:01 10° ENE visible
25 May -3.8 23:24:08 10° WNW 23:27:28 84° NNE 23:29:04 28° ESE visible
26 May -1.6 01:00:54 10° W 01:01:47 16° W 01:01:47 16° W visible
26 May -3.6 22:33:11 10° WNW 22:36:30 70° N 22:39:44 10° E visible
27 May -3.1 00:09:51 10° W 00:12:26 38° WSW 00:12:26 38° WSW visible
27 May -3.3 21:42:13 10° W 21:45:31 63° N 21:48:47 10° E visible
27 May -3.8 23:18:51 10° WNW 23:22:08 63° SSW 23:23:07 39° SE visible
28 May -3.9 22:27:53 10° WNW 22:31:12 86° SSW 22:33:50 15° ESE visible
29 May -2.0 00:04:47 10° W 00:06:32 20° WSW 00:06:32 20° WSW visible
29 May -3.6 21:36:54 10° WNW 21:40:13 76° NNE 21:43:31 10° E visible
29 May -3.0 23:13:36 10° W 23:16:39 35° SSW 23:17:16 31° S visible
30 May -3.5 22:22:32 10° WNW 22:25:45 52° SSW 22:28:00 18° SE visible
31 May -1.2 00:00:29 10° WSW 00:00:43 11° WSW 00:00:43 11° WSW visible
31 May -2.0 23:08:36 10° W 23:10:59 18° SW 23:11:29 18° SSW visible
